This is the latest recevied weather packets stored in our database for station/object CE7LGA-10. If no packets are shown the sender has not sent any weather packets the latest 10 day(s).
| Time | Temp. | Humidity | Pressure | Rain* | Wind** | Luminosity | Snow |
|---|---|---|---|---|---|---|---|
| 1777671431 | 16.67° C | 69% | 1015.2 hPa | - | - | - | - |
| 1777670531 | 16.67° C | 69% | 1015.2 hPa | - | - | - | - |
| 1777669631 | 16.67° C | 72% | 1015 hPa | - | - | - | - |
| 1777668730 | 16.67° C | 74% | 1015 hPa | - | - | - | - |
| 1777667830 | 16.67° C | 76% | 1015 hPa | - | - | - | - |
| 1777666930 | 16.67° C | 77% | 1015 hPa | - | - | - | - |
| 1777666030 | 16.67° C | 78% | 1014.7 hPa | - | - | - | - |
| 1777665130 | 16.67° C | 76% | 1014.5 hPa | - | - | - | - |
| 1777664230 | 16.67° C | 71% | 1014.3 hPa | - | - | - | - |
| 1777663329 | 16.11° C | 69% | 1014.1 hPa | - | - | - | - |
| 1777662429 | 15.56° C | 67% | 1014 hPa | - | - | - | - |
| 1777661529 | 15.56° C | 68% | 1014 hPa | - | - | - | - |
| 1777660631 | 15.56° C | 68% | 1013.7 hPa | - | - | - | - |
| 1777659731 | 15.56° C | 68% | 1013.6 hPa | - | - | - | - |
| 1777658831 | 16.11° C | 69% | 1013.4 hPa | - | - | - | - |
| 1777657931 | 16.11° C | 68% | 1013.3 hPa | - | - | - | - |
| 1777657030 | 15.56° C | 66% | 1013.2 hPa | - | - | - | - |
| 1777656130 | 16.11° C | 66% | 1012.9 hPa | - | - | - | - |
| 1777655230 | 15.56° C | 66% | 1012.8 hPa | - | - | - | - |
| 1777654330 | 15.56° C | 67% | 1012.9 hPa | - | - | - | - |
| 1777653430 | 15.56° C | 67% | 1012.8 hPa | - | - | - | - |
| 1777652530 | 15.56° C | 67% | 1012.7 hPa | - | - | - | - |
| 1777651630 | 15.56° C | 67% | 1012.7 hPa | - | - | - | - |
| 1777650730 | 15° C | 66% | 1012.5 hPa | - | - | - | - |
| 1777649830 | 15° C | 67% | 1012.2 hPa | - | - | - | - |
* Rain since midnight (hover to see other rain measurements)
** Current wind speed in m/s (hover to see current wind gust speed)